Location: Nasgenstadt
(48.2786°N, 9.7553°E)
Time: 15:08:19
(UTC+02:00)

STARLINK-2695 - Pass Details

Date: 01 August 2021
Orbit: 546 x 548 km, 53.1° (Epoch: 18 September)

Event Time Altitude Azimuth Distance (km) Brightness Sun altitude
Rises 21:58:21 0° 287° (WNW) 2,715 8.6 -9.2°
Reaches altitude 10° 22:01:23 10° 264° (W) 1,817 6.9 -9.6°
Maximum altitude 22:03:43 15° 230° (SW) 1,530 6.0 -9.9°
Drops below altitude 10° 22:06:02 10° 195° (SSW) 1,810 6.0 -10.2°
Enters shadow 22:07:41 - 180° (S) 2,252 6.3 -10.4°
